This is the latest recevied weather packets stored in our database for station/object SR9WXP. If no packets are shown the sender has not sent any weather packets the latest 10 day(s).
| Time | Temp. | Humidity | Pressure | Rain* | Wind** | Luminosity | Snow |
|---|---|---|---|---|---|---|---|
| 1787409663 | 10.56° C | 31% | 856.9 hPa | - | - | - | - |
| 1787409605 | 10.56° C | 31% | 856.9 hPa | - | - | - | - |
| 1787409485 | 11.11° C | 31% | 856.9 hPa | - | - | - | - |
| 1787409364 | 11.11° C | 31% | 856.9 hPa | - | - | - | - |
| 1787409244 | 11.11° C | 31% | 856.9 hPa | - | - | - | - |
| 1787409124 | 11.67° C | 31% | 856.9 hPa | - | - | - | - |
| 1787409061 | 11.67° C | 31% | 856.8 hPa | - | - | - | - |
| 1787409003 | 11.67° C | 31% | 856.8 hPa | - | - | - | - |
| 1787408953 | 11.67° C | 31% | 856.8 hPa | - | - | - | - |
| 1787408761 | 12.22° C | 31% | 856.7 hPa | - | - | - | - |
| 1787408651 | 12.22° C | 31% | 856.7 hPa | - | - | - | - |
| 1787408640 | 12.22° C | 31% | 856.7 hPa | - | - | - | - |
| 1787408457 | 12.22° C | 31% | 856.8 hPa | - | - | - | - |
| 1787408157 | 12.22° C | 31% | 856.6 hPa | - | - | - | - |
| 1787407978 | 12.22° C | 31% | 856.6 hPa | - | - | - | - |
| 1787407854 | 12.22° C | 31% | 856.6 hPa | - | - | - | - |
| 1787407735 | 12.78° C | 31% | 856.5 hPa | - | - | - | - |
| 1787407615 | 12.78° C | 31% | 856.5 hPa | - | - | - | - |
| 1787407554 | 12.78° C | 31% | 856.5 hPa | - | - | - | - |
| 1787407495 | 12.78° C | 31% | 856.4 hPa | - | - | - | - |
| 1787407375 | 12.22° C | 31% | 856.4 hPa | - | - | - | - |
| 1787407251 | 12.22° C | 31% | 856.4 hPa | - | - | - | - |
| 1787407133 | 12.22° C | 31% | 856.5 hPa | - | - | - | - |
| 1787406951 | 11.67° C | 31% | 856.6 hPa | - | - | - | - |
| 1787406893 | 11.67° C | 31% | 856.6 hPa | - | - | - | - |
* Rain since midnight (hover to see other rain measurements)
** Current wind speed in m/s (hover to see current wind gust speed)